Time,TemperatureF,DewpointF,PressureIn,WindDirection,WindDirectionDegrees,WindSpeedMPH,WindSpeedGustMPH,Humidity,HourlyPrecipIn,Conditions,Clouds,dailyrainin,SoftwareType,DateUTC
2013-03-18 00:04:00,32.0,29.3,30.24,ENE,68,3.4,3.4,89,0.00,,,0.00,WUHU216HW,2013-03-18 04:04:00,
2013-03-18 00:09:00,32.0,29.8,30.24,ENE,68,3.1,3.4,91,0.00,,,0.00,WUHU216HW,2013-03-18 04:09:00,
2013-03-18 00:14:00,32.0,30.1,30.24,ENE,68,1.1,4.0,92,0.00,,,0.00,WUHU216HW,2013-03-18 04:14:00,
2013-03-18 00:19:00,32.0,30.1,30.24,ENE,68,0.7,4.0,92,0.00,,,0.00,WUHU216HW,2013-03-18 04:19:00,
2013-03-18 00:24:00,32.0,29.8,30.24,ENE,68,0.4,2.5,91,0.00,,,0.00,WUHU216HW,2013-03-18 04:24:00,
2013-03-18 00:29:00,32.0,29.5,30.24,ENE,68,0.4,2.0,90,0.00,,,0.00,WUHU216HW,2013-03-18 04:29:00,
2013-03-18 00:34:00,32.0,29.8,30.24,ENE,68,1.3,1.3,91,0.00,,,0.00,WUHU216HW,2013-03-18 04:34:00,
2013-03-18 00:39:00,32.0,29.8,30.23,ENE,68,2.0,2.0,91,0.00,,,0.00,WUHU216HW,2013-03-18 04:39:00,
2013-03-18 00:44:00,32.0,30.1,30.23,ENE,68,0.9,2.0,92,0.00,,,0.00,WUHU216HW,2013-03-18 04:44:00,
2013-03-18 00:49:00,32.0,30.1,30.23,ENE,68,1.1,1.8,92,0.00,,,0.00,WUHU216HW,2013-03-18 04:49:00,
2013-03-18 00:54:00,32.0,29.8,30.23,ENE,68,0.4,1.8,91,0.00,,,0.00,WUHU216HW,2013-03-18 04:54:00,
2013-03-18 00:59:00,32.0,29.8,30.23,ENE,68,0.7,1.8,91,0.00,,,0.00,WUHU216HW,2013-03-18 04:59:00,
2013-03-18 01:04:00,32.0,30.1,30.23,ENE,68,0.7,1.8,92,0.00,,,0.00,WUHU216HW,2013-03-18 05:04:00,
2013-03-18 01:09:00,32.0,29.8,30.23,ENE,68,0.4,1.8,91,0.00,,,0.00,WUHU216HW,2013-03-18 05:09:00,
2013-03-18 01:14:00,32.0,29.5,30.23,ENE,68,0.0,1.1,90,0.00,,,0.00,WUHU216HW,2013-03-18 05:14:00,
2013-03-18 01:19:00,32.0,29.8,30.23,ENE,68,1.3,1.3,91,0.00,,,0.00,WUHU216HW,2013-03-18 05:19:00,
2013-03-18 01:24:00,32.2,30.2,30.23,ENE,68,1.3,1.8,92,0.00,,,0.00,WUHU216HW,2013-03-18 05:24:00,
2013-03-18 01:29:00,32.0,29.8,30.23,ENE,68,1.3,2.0,91,0.00,,,0.00,WUHU216HW,2013-03-18 05:29:00,
2013-03-18 01:34:00,32.2,30.2,30.23,ENE,68,2.5,2.5,92,0.00,,,0.00,WUHU216HW,2013-03-18 05:34:00,
2013-03-18 01:39:00,32.2,30.0,30.23,ENE,68,1.6,2.5,91,0.00,,,0.00,WUHU216HW,2013-03-18 05:39:00,
2013-03-18 01:44:00,32.2,30.2,30.23,ENE,68,1.8,1.8,92,0.00,,,0.00,WUHU216HW,2013-03-18 05:44:00,
2013-03-18 01:49:00,32.2,30.2,30.23,ENE,68,1.3,1.8,92,0.00,,,0.00,WUHU216HW,2013-03-18 05:49:00,
2013-03-18 01:54:00,32.2,30.0,30.23,ENE,68,0.2,1.3,91,0.00,,,0.00,WUHU216HW,2013-03-18 05:54:00,
2013-03-18 01:59:00,32.2,30.2,30.23,ENE,68,0.2,1.1,92,0.00,,,0.00,WUHU216HW,2013-03-18 05:59:00,
2013-03-18 02:04:00,32.2,30.0,30.23,ENE,68,0.2,1.6,91,0.00,,,0.00,WUHU216HW,2013-03-18 06:04:00,
2013-03-18 02:09:00,32.2,30.2,30.23,ENE,68,1.3,1.6,92,0.00,,,0.00,WUHU216HW,2013-03-18 06:09:00,
2013-03-18 02:14:00,32.2,30.0,30.23,ENE,68,1.1,1.6,91,0.00,,,0.00,WUHU216HW,2013-03-18 06:14:00,
2013-03-18 02:19:00,32.2,30.0,30.23,ENE,68,1.1,1.6,91,0.00,,,0.00,WUHU216HW,2013-03-18 06:19:00,
2013-03-18 02:24:00,32.2,30.0,30.23,ENE,68,0.9,1.6,91,0.00,,,0.00,WUHU216HW,2013-03-18 06:24:00,
2013-03-18 02:29:00,32.2,30.0,30.23,ENE,68,0.4,1.6,91,0.00,,,0.00,WUHU216HW,2013-03-18 06:29:00,
2013-03-18 02:34:00,32.2,30.0,30.23,ENE,68,0.7,1.6,91,0.00,,,0.00,WUHU216HW,2013-03-18 06:34:00,
2013-03-18 02:39:00,32.2,30.0,30.23,ENE,68,0.9,1.3,91,0.00,,,0.00,WUHU216HW,2013-03-18 06:39:00,
2013-03-18 02:44:00,32.2,30.0,30.23,ENE,68,0.9,1.3,91,0.00,,,0.00,WUHU216HW,2013-03-18 06:44:00,
2013-03-18 02:49:00,32.2,30.0,30.23,ENE,68,0.4,1.3,91,0.00,,,0.00,WUHU216HW,2013-03-18 06:49:00,
2013-03-18 02:54:00,32.2,30.0,30.23,ENE,68,0.7,1.6,91,0.00,,,0.00,WUHU216HW,2013-03-18 06:54:00,
2013-03-18 02:59:00,32.2,30.0,30.23,ENE,68,1.1,1.6,91,0.00,,,0.00,WUHU216HW,2013-03-18 06:59:00,
2013-03-18 03:04:00,32.2,30.0,30.23,ENE,68,1.1,1.1,91,0.00,,,0.00,WUHU216HW,2013-03-18 07:04:00,
2013-03-18 03:09:00,32.2,30.0,30.23,ENE,68,0.9,1.8,91,0.00,,,0.00,WUHU216HW,2013-03-18 07:09:00,
2013-03-18 03:14:00,32.2,29.7,30.23,ENE,68,0.2,1.8,90,0.00,,,0.00,WUHU216HW,2013-03-18 07:14:00,
2013-03-18 03:19:00,32.2,29.7,30.23,ENE,68,0.4,1.1,90,0.00,,,0.00,WUHU216HW,2013-03-18 07:19:00,
2013-03-18 03:24:00,32.2,29.7,30.22,ENE,68,0.4,1.1,90,0.00,,,0.00,WUHU216HW,2013-03-18 07:24:00,
2013-03-18 03:29:00,32.4,30.1,30.22,ENE,68,0.2,1.3,91,0.00,,,0.00,WUHU216HW,2013-03-18 07:29:00,
2013-03-18 03:34:00,32.2,29.7,30.22,ENE,68,0.4,1.3,90,0.00,,,0.00,WUHU216HW,2013-03-18 07:34:00,
2013-03-18 03:39:00,32.2,29.7,30.23,ENE,68,0.0,0.7,90,0.00,,,0.00,WUHU216HW,2013-03-18 07:39:00,
2013-03-18 03:44:00,32.2,29.7,30.23,ENE,68,0.4,0.4,90,0.00,,,0.00,WUHU216HW,2013-03-18 07:44:00,
2013-03-18 03:49:00,32.2,29.7,30.23,ENE,68,0.4,0.7,90,0.00,,,0.00,WUHU216HW,2013-03-18 07:49:00,
2013-03-18 03:54:00,32.2,29.7,30.23,ENE,68,0.4,0.7,90,0.00,,,0.00,WUHU216HW,2013-03-18 07:54:00,
2013-03-18 03:59:00,32.4,29.9,30.22,ENE,68,0.4,0.9,90,0.00,,,0.00,WUHU216HW,2013-03-18 07:59:00,
2013-03-18 04:04:00,32.4,29.9,30.22,ENE,68,1.1,1.1,90,0.00,,,0.00,WUHU216HW,2013-03-18 08:04:00,
2013-03-18 04:09:00,32.2,29.7,30.23,ENE,68,0.9,1.1,90,0.00,,,0.00,WUHU216HW,2013-03-18 08:09:00,
2013-03-18 04:14:00,32.2,29.7,30.22,ENE,68,0.9,1.3,90,0.00,,,0.00,WUHU216HW,2013-03-18 08:14:00,
2013-03-18 04:19:00,32.2,30.0,30.23,ENE,68,1.1,1.3,91,0.00,,,0.00,WUHU216HW,2013-03-18 08:19:00,
2013-03-18 04:24:00,32.2,30.0,30.23,ENE,68,0.2,1.1,91,0.00,,,0.00,WUHU216HW,2013-03-18 08:24:00,
2013-03-18 04:29:00,32.2,30.0,30.22,ENE,68,1.1,1.3,91,0.00,,,0.00,WUHU216HW,2013-03-18 08:29:00,
2013-03-18 04:34:00,32.0,29.8,30.22,ENE,68,0.4,2.2,91,0.00,,,0.00,WUHU216HW,2013-03-18 08:34:00,
2013-03-18 04:39:00,32.0,29.8,30.22,ENE,68,0.7,2.2,91,0.00,,,0.00,WUHU216HW,2013-03-18 08:39:00,
2013-03-18 04:44:00,32.0,29.8,30.23,ENE,68,0.4,2.0,91,0.00,,,0.00,WUHU216HW,2013-03-18 08:44:00,
2013-03-18 04:49:00,32.0,29.8,30.23,ENE,68,0.0,1.1,91,0.00,,,0.00,WUHU216HW,2013-03-18 08:49:00,
2013-03-18 04:54:00,32.0,29.5,30.23,ENE,68,0.7,1.1,90,0.00,,,0.00,WUHU216HW,2013-03-18 08:54:00,
2013-03-18 04:59:00,32.0,29.5,30.22,ENE,68,1.1,1.8,90,0.00,,,0.00,WUHU216HW,2013-03-18 08:59:00,
2013-03-18 05:04:00,32.0,29.3,30.23,ENE,68,0.4,1.8,89,0.00,,,0.00,WUHU216HW,2013-03-18 09:04:00,
2013-03-18 05:09:00,32.0,29.3,30.23,ENE,68,1.6,2.5,89,0.00,,,0.00,WUHU216HW,2013-03-18 09:09:00,
2013-03-18 05:14:00,31.9,29.1,30.23,ENE,68,0.9,2.5,89,0.00,,,0.00,WUHU216HW,2013-03-18 09:14:00,
2013-03-18 05:19:00,31.9,29.1,30.23,ENE,68,0.4,1.3,89,0.00,,,0.00,WUHU216HW,2013-03-18 09:19:00,
2013-03-18 05:24:00,31.9,29.3,30.23,ENE,68,1.1,1.8,90,0.00,,,0.00,WUHU216HW,2013-03-18 09:24:00,
2013-03-18 05:29:00,31.9,29.3,30.23,ENE,68,1.1,1.8,90,0.00,,,0.00,WUHU216HW,2013-03-18 09:29:00,
2013-03-18 05:34:00,31.9,29.3,30.23,ENE,68,0.4,1.8,90,0.00,,,0.00,WUHU216HW,2013-03-18 09:34:00,
2013-03-18 05:40:00,31.9,29.3,30.23,ENE,68,0.4,1.8,90,0.00,,,0.00,WUHU216HW,2013-03-18 09:40:00,
2013-03-18 05:45:00,31.9,29.3,30.23,ENE,68,0.9,1.6,90,0.00,,,0.00,WUHU216HW,2013-03-18 09:45:00,
2013-03-18 05:50:00,31.9,29.3,30.23,ENE,68,0.4,1.6,90,0.00,,,0.00,WUHU216HW,2013-03-18 09:50:00,
2013-03-18 05:55:00,31.9,29.3,30.23,ENE,68,0.7,1.6,90,0.00,,,0.00,WUHU216HW,2013-03-18 09:55:00,
2013-03-18 06:00:00,31.9,29.3,30.23,ENE,68,0.4,1.6,90,0.00,,,0.00,WUHU216HW,2013-03-18 10:00:00,
2013-03-18 06:05:00,31.9,29.1,30.24,ENE,68,0.4,1.1,89,0.00,,,0.00,WUHU216HW,2013-03-18 10:05:00,
2013-03-18 06:10:00,31.9,29.3,30.24,ENE,68,0.4,0.9,90,0.00,,,0.00,WUHU216HW,2013-03-18 10:10:00,
2013-03-18 06:15:00,31.9,29.1,30.24,ENE,68,0.4,1.1,89,0.00,,,0.00,WUHU216HW,2013-03-18 10:15:00,
2013-03-18 06:20:00,31.9,29.3,30.24,ENE,68,1.8,1.8,90,0.00,,,0.00,WUHU216HW,2013-03-18 10:20:00,
2013-03-18 06:25:00,31.9,29.1,30.24,ENE,68,0.4,1.8,89,0.00,,,0.00,WUHU216HW,2013-03-18 10:25:00,
2013-03-18 06:30:00,31.9,29.3,30.24,ENE,68,1.3,1.3,90,0.00,,,0.00,WUHU216HW,2013-03-18 10:30:00,
2013-03-18 06:35:00,31.9,29.1,30.25,ENE,68,0.7,1.6,89,0.00,,,0.00,WUHU216HW,2013-03-18 10:35:00,
2013-03-18 06:40:00,31.9,29.3,30.25,ENE,68,1.8,2.0,90,0.00,,,0.00,WUHU216HW,2013-03-18 10:40:00,
2013-03-18 06:45:00,31.9,29.1,30.24,ENE,68,0.0,2.0,89,0.00,,,0.00,WUHU216HW,2013-03-18 10:45:00,
2013-03-18 06:50:00,31.9,29.1,30.25,ENE,68,0.9,1.1,89,0.00,,,0.00,WUHU216HW,2013-03-18 10:50:00,
2013-03-18 06:55:00,31.9,29.1,30.25,ENE,68,0.4,1.3,89,0.00,,,0.00,WUHU216HW,2013-03-18 10:55:00,
2013-03-18 07:00:00,31.9,29.1,30.25,ENE,68,1.1,1.3,89,0.00,,,0.00,WUHU216HW,2013-03-18 11:00:00,
2013-03-18 07:05:00,32.0,29.3,30.25,ENE,68,1.1,2.7,89,0.00,,,0.00,WUHU216HW,2013-03-18 11:05:00,
2013-03-18 07:10:00,32.0,29.3,30.25,ENE,68,1.1,2.7,89,0.00,,,0.00,WUHU216HW,2013-03-18 11:10:00,
2013-03-18 07:15:00,32.0,29.3,30.25,ENE,68,0.9,2.0,89,0.00,,,0.00,WUHU216HW,2013-03-18 11:15:00,
2013-03-18 07:20:00,32.0,29.3,30.25,ENE,68,0.4,2.0,89,0.00,,,0.00,WUHU216HW,2013-03-18 11:20:00,
2013-03-18 07:25:00,32.0,29.3,30.25,ENE,68,0.4,1.1,89,0.00,,,0.00,WUHU216HW,2013-03-18 11:25:00,
2013-03-18 07:30:00,32.0,29.3,30.25,ENE,68,0.4,0.9,89,0.00,,,0.00,WUHU216HW,2013-03-18 11:30:00,
2013-03-18 07:35:00,31.9,29.1,30.25,ENE,68,0.4,0.9,89,0.00,,,0.00,WUHU216HW,2013-03-18 11:35:00,
2013-03-18 07:40:00,31.9,29.1,30.25,ENE,68,0.4,1.6,89,0.00,,,0.00,WUHU216HW,2013-03-18 11:40:00,
2013-03-18 07:45:00,31.9,29.1,30.25,ENE,68,1.1,1.6,89,0.00,,,0.00,WUHU216HW,2013-03-18 11:45:00,
2013-03-18 07:50:00,31.9,29.1,30.25,ENE,68,0.4,1.6,89,0.00,,,0.00,WUHU216HW,2013-03-18 11:50:00,
2013-03-18 07:55:00,31.9,29.1,30.26,ENE,68,1.1,1.6,89,0.00,,,0.00,WUHU216HW,2013-03-18 11:55:00,
2013-03-18 08:00:00,31.9,29.1,30.25,ENE,68,1.3,2.5,89,0.00,,,0.00,WUHU216HW,2013-03-18 12:00:00,
2013-03-18 08:05:00,31.9,29.1,30.25,ENE,68,1.6,2.5,89,0.00,,,0.00,WUHU216HW,2013-03-18 12:05:00,
2013-03-18 08:10:00,31.9,29.1,30.25,ENE,68,0.4,2.0,89,0.00,,,0.00,WUHU216HW,2013-03-18 12:10:00,
2013-03-18 08:15:00,32.0,29.3,30.25,ENE,68,0.4,2.0,89,0.00,,,0.00,WUHU216HW,2013-03-18 12:15:00,
2013-03-18 08:20:00,32.0,29.5,30.25,ENE,68,1.1,1.8,90,0.00,,,0.00,WUHU216HW,2013-03-18 12:20:00,
2013-03-18 08:25:00,32.0,29.5,30.24,ENE,68,1.8,1.8,90,0.00,,,0.00,WUHU216HW,2013-03-18 12:25:00,
2013-03-18 08:30:00,32.0,29.5,30.24,ENE,68,1.8,3.4,90,0.00,,,0.00,WUHU216HW,2013-03-18 12:30:00,
2013-03-18 08:35:00,32.0,29.5,30.23,ENE,68,1.1,3.4,90,0.00,,,0.00,WUHU216HW,2013-03-18 12:35:00,
2013-03-18 08:40:00,32.2,29.4,30.23,ENE,68,2.5,2.5,89,0.00,,,0.00,WUHU216HW,2013-03-18 12:40:00,
2013-03-18 08:45:00,32.4,29.5,30.23,ENE,68,1.3,2.5,89,0.00,,,0.00,WUHU216HW,2013-03-18 12:45:00,
2013-03-18 08:50:00,32.4,29.5,30.23,ENE,68,0.9,2.2,89,0.00,,,0.00,WUHU216HW,2013-03-18 12:50:00,
2013-03-18 08:55:00,32.6,29.7,30.23,ENE,68,1.1,1.6,89,0.00,,,0.00,WUHU216HW,2013-03-18 12:55:00,
2013-03-18 09:00:00,32.8,29.6,30.22,ENE,68,1.8,2.5,88,0.00,,,0.00,WUHU216HW,2013-03-18 13:00:00,
2013-03-18 09:05:00,32.8,29.4,30.23,ENE,68,5.4,5.4,87,0.00,,,0.00,WUHU216HW,2013-03-18 13:05:00,
2013-03-18 09:10:00,32.8,29.6,30.23,ENE,68,2.7,5.4,88,0.00,,,0.00,WUHU216HW,2013-03-18 13:10:00,
2013-03-18 09:15:00,32.9,29.4,30.23,ENE,68,3.4,3.4,87,0.00,,,0.00,WUHU216HW,2013-03-18 13:15:00,
2013-03-18 09:20:00,33.1,29.6,30.23,ENE,68,2.0,3.6,87,0.00,,,0.00,WUHU216HW,2013-03-18 13:20:00,
2013-03-18 09:25:00,33.3,29.8,30.22,ENE,68,2.5,3.6,87,0.00,,,0.00,WUHU216HW,2013-03-18 13:25:00,
2013-03-18 09:30:00,33.3,29.5,30.22,ENE,68,2.0,3.1,86,0.00,,,0.00,WUHU216HW,2013-03-18 13:30:00,
2013-03-18 09:35:00,33.3,29.5,30.22,ENE,68,3.1,4.0,86,0.00,,,0.00,WUHU216HW,2013-03-18 13:35:00,
2013-03-18 09:40:00,33.5,29.7,30.21,ENE,68,3.4,4.0,86,0.00,,,0.00,WUHU216HW,2013-03-18 13:40:00,
2013-03-18 09:45:00,33.5,29.7,30.21,ENE,68,3.8,3.8,86,0.00,,,0.00,WUHU216HW,2013-03-18 13:45:00,
2013-03-18 09:50:00,33.5,29.7,30.21,ENE,68,2.7,3.8,86,0.00,,,0.00,WUHU216HW,2013-03-18 13:50:00,
2013-03-18 09:55:00,33.5,29.7,30.21,ENE,68,4.3,4.5,86,0.00,,,0.00,WUHU216HW,2013-03-18 13:55:00,
2013-03-18 10:00:00,33.5,29.3,30.21,ENE,68,2.7,4.5,85,0.00,,,0.00,WUHU216HW,2013-03-18 14:00:00,
2013-03-18 10:05:00,33.5,29.3,30.20,ENE,68,2.9,4.7,85,0.00,,,0.00,WUHU216HW,2013-03-18 14:05:00,
2013-03-18 10:10:00,33.7,29.5,30.20,ENE,68,4.0,4.7,85,0.00,,,0.00,WUHU216HW,2013-03-18 14:10:00,
2013-03-18 10:15:00,33.7,29.5,30.20,ENE,68,2.0,4.0,85,0.00,,,0.00,WUHU216HW,2013-03-18 14:15:00,
2013-03-18 10:20:00,33.7,29.5,30.19,ENE,68,1.6,3.8,85,0.00,,,0.00,WUHU216HW,2013-03-18 14:20:00,
2013-03-18 10:25:00,33.8,29.7,30.19,ENE,68,3.6,3.6,85,0.00,,,0.00,WUHU216HW,2013-03-18 14:25:00,
2013-03-18 10:30:00,34.0,29.9,30.19,ENE,68,2.9,3.6,85,0.00,,,0.00,WUHU216HW,2013-03-18 14:30:00,
2013-03-18 10:35:00,34.0,29.9,30.20,ENE,68,2.0,3.8,85,0.00,,,0.00,WUHU216HW,2013-03-18 14:35:00,
2013-03-18 10:40:00,34.0,29.6,30.20,ENE,68,0.0,3.8,84,0.00,,,0.00,WUHU216HW,2013-03-18 14:40:00,
2013-03-18 10:45:00,34.0,29.6,30.19,ENE,68,0.7,1.8,84,0.00,,,0.00,WUHU216HW,2013-03-18 14:45:00,
2013-03-18 10:50:00,33.7,29.0,30.19,ENE,68,1.8,2.5,83,0.00,,,0.00,WUHU216HW,2013-03-18 14:50:00,
2013-03-18 10:55:00,33.8,29.4,30.18,ENE,68,2.0,2.9,84,0.00,,,0.00,WUHU216HW,2013-03-18 14:55:00,
2013-03-18 11:00:00,34.2,29.8,30.19,ENE,68,0.7,3.4,84,0.00,,,0.00,WUHU216HW,2013-03-18 15:00:00,
2013-03-18 11:05:00,34.4,30.0,30.20,ENE,68,1.1,3.4,84,0.00,,,0.00,WUHU216HW,2013-03-18 15:05:00,
2013-03-18 11:10:00,34.7,30.3,30.19,ENE,68,2.5,2.5,84,0.00,,,0.00,WUHU216HW,2013-03-18 15:10:00,
2013-03-18 11:15:00,34.7,30.3,30.18,ENE,68,3.6,4.3,84,0.00,,,0.00,WUHU216HW,2013-03-18 15:15:00,
2013-03-18 11:20:00,34.7,30.3,30.19,ENE,68,2.5,4.3,84,0.00,,,0.00,WUHU216HW,2013-03-18 15:20:00,
2013-03-18 11:25:00,34.9,30.5,30.18,ENE,68,3.4,3.4,84,0.00,,,0.00,WUHU216HW,2013-03-18 15:25:00,
2013-03-18 11:30:00,34.9,30.5,30.18,ENE,68,2.7,4.0,84,0.00,,,0.00,WUHU216HW,2013-03-18 15:30:00,
2013-03-18 11:35:00,34.7,30.3,30.18,ENE,68,4.3,4.3,84,0.00,,,0.00,WUHU216HW,2013-03-18 15:35:00,
2013-03-18 11:40:00,34.7,30.3,30.18,ENE,68,1.8,4.3,84,0.00,,,0.00,WUHU216HW,2013-03-18 15:40:00,
2013-03-18 11:45:00,34.9,30.5,30.17,ENE,68,1.3,4.0,84,0.00,,,0.00,WUHU216HW,2013-03-18 15:45:00,
2013-03-18 11:50:00,35.1,30.1,30.18,ENE,68,1.1,2.9,82,0.00,,,0.00,WUHU216HW,2013-03-18 15:50:00,
2013-03-18 11:55:00,35.1,30.7,30.17,ENE,68,3.1,3.1,84,0.00,,,0.00,WUHU216HW,2013-03-18 15:55:00,
2013-03-18 12:00:00,35.3,30.9,30.17,ENE,68,1.6,3.1,84,0.00,,,0.00,WUHU216HW,2013-03-18 16:00:00,
2013-03-18 12:05:00,35.6,31.2,30.17,ENE,68,2.5,2.5,84,0.00,,,0.00,WUHU216HW,2013-03-18 16:05:00,
2013-03-18 12:10:00,35.6,31.0,30.17,ENE,68,0.2,2.5,83,0.00,,,0.00,WUHU216HW,2013-03-18 16:10:00,
2013-03-18 12:15:00,35.6,30.6,30.16,ENE,68,1.3,1.8,82,0.00,,,0.00,WUHU216HW,2013-03-18 16:15:00,
2013-03-18 12:20:00,35.6,30.6,30.17,ENE,68,2.5,3.4,82,0.00,,,0.00,WUHU216HW,2013-03-18 16:20:00,
2013-03-18 12:25:00,36.0,31.0,30.16,ENE,68,1.1,3.4,82,0.00,,,0.00,WUHU216HW,2013-03-18 16:25:00,
2013-03-18 12:30:00,36.4,31.3,30.17,ENE,68,1.3,2.5,82,0.00,,,0.00,WUHU216HW,2013-03-18 16:30:00,
2013-03-18 12:35:00,36.4,31.1,30.16,ENE,68,0.7,1.8,81,0.00,,,0.00,WUHU216HW,2013-03-18 16:35:00,
2013-03-18 12:40:00,36.5,31.0,30.15,ENE,68,1.3,1.6,80,0.00,,,0.00,WUHU216HW,2013-03-18 16:40:00,
2013-03-18 12:45:00,36.5,31.0,30.15,ENE,68,1.8,2.0,80,0.00,,,0.00,WUHU216HW,2013-03-18 16:45:00,
2013-03-18 12:50:00,37.1,31.5,30.14,ENE,68,1.1,2.7,80,0.00,,,0.00,WUHU216HW,2013-03-18 16:50:00,
2013-03-18 12:55:00,37.4,31.5,30.13,ENE,68,2.0,2.7,79,0.00,,,0.00,WUHU216HW,2013-03-18 16:55:00,
2013-03-18 13:00:00,38.2,32.6,30.13,ENE,68,0.7,2.9,80,0.00,,,0.00,WUHU216HW,2013-03-18 17:00:00,
2013-03-18 13:05:00,37.8,30.9,30.12,ENE,68,1.6,2.9,76,0.00,,,0.00,WUHU216HW,2013-03-18 17:05:00,
2013-03-18 13:10:00,37.8,31.6,30.12,ENE,68,0.4,1.6,78,0.00,,,0.00,WUHU216HW,2013-03-18 17:10:00,
2013-03-18 13:15:00,38.0,31.8,30.12,ENE,68,0.7,1.6,78,0.00,,,0.00,WUHU216HW,2013-03-18 17:15:00,
2013-03-18 13:20:00,37.8,31.6,30.12,ENE,68,0.0,0.9,78,0.00,,,0.00,WUHU216HW,2013-03-18 17:20:00,
2013-03-18 13:25:00,37.1,30.3,30.11,ENE,68,0.4,1.3,76,0.00,,,0.00,WUHU216HW,2013-03-18 17:25:00,
2013-03-18 13:30:00,37.4,31.5,30.12,ENE,68,0.4,1.3,79,0.00,,,0.00,WUHU216HW,2013-03-18 17:30:00,
2013-03-18 13:35:00,37.8,31.9,30.11,ENE,68,0.4,0.7,79,0.00,,,0.00,WUHU216HW,2013-03-18 17:35:00,
2013-03-18 13:40:00,37.4,31.5,30.10,ENE,68,0.4,1.8,79,0.00,,,0.00,WUHU216HW,2013-03-18 17:40:00,
2013-03-18 13:45:00,37.1,31.1,30.10,ENE,68,0.7,1.8,79,0.00,,,0.00,WUHU216HW,2013-03-18 17:45:00,
2013-03-18 13:50:00,36.9,31.3,30.10,ENE,68,1.1,1.6,80,0.00,,,0.00,WUHU216HW,2013-03-18 17:50:00,
2013-03-18 13:56:00,36.4,31.1,30.09,ENE,68,1.1,1.1,81,0.00,,,0.00,WUHU216HW,2013-03-18 17:56:00,
2013-03-18 14:01:00,35.6,30.6,30.09,ENE,68,0.7,1.1,82,0.00,,,0.00,WUHU216HW,2013-03-18 18:01:00,
2013-03-18 14:06:00,35.3,30.6,30.09,ENE,68,0.4,1.1,83,0.00,,,0.00,WUHU216HW,2013-03-18 18:06:00,
2013-03-18 14:11:00,35.1,30.4,30.08,ENE,68,0.0,0.9,83,0.00,,,0.00,WUHU216HW,2013-03-18 18:11:00,
2013-03-18 14:16:00,35.3,30.6,30.08,ENE,68,0.4,0.9,83,0.00,,,0.00,WUHU216HW,2013-03-18 18:16:00,
2013-03-18 14:21:00,34.9,30.5,30.09,ENE,68,1.6,1.8,84,0.00,,,0.00,WUHU216HW,2013-03-18 18:21:00,
2013-03-18 14:26:00,34.9,30.5,30.09,NE,45,2.5,2.5,84,0.00,,,0.00,WUHU216HW,2013-03-18 18:26:00,
2013-03-18 14:31:00,34.6,30.2,30.09,NE,45,1.3,2.7,84,0.00,,,0.00,WUHU216HW,2013-03-18 18:31:00,
2013-03-18 14:36:00,34.4,30.0,30.08,NE,45,1.3,2.7,84,0.00,,,0.00,WUHU216HW,2013-03-18 18:36:00,
2013-03-18 14:41:00,34.6,30.4,30.08,NE,45,1.1,1.3,85,0.00,,,0.00,WUHU216HW,2013-03-18 18:41:00,
2013-03-18 14:46:00,34.6,30.4,30.08,NE,45,0.4,1.8,85,0.00,,,0.00,WUHU216HW,2013-03-18 18:46:00,
2013-03-18 14:51:00,34.4,30.0,30.08,NE,45,0.7,1.8,84,0.00,,,0.00,WUHU216HW,2013-03-18 18:51:00,
2013-03-18 14:56:00,34.6,30.2,30.07,NE,45,0.9,1.1,84,0.00,,,0.00,WUHU216HW,2013-03-18 18:56:00,
2013-03-18 15:01:00,34.7,30.3,30.07,NE,45,0.4,1.1,84,0.00,,,0.00,WUHU216HW,2013-03-18 19:01:00,
2013-03-18 15:06:00,34.7,30.3,30.07,NE,45,1.1,1.6,84,0.00,,,0.00,WUHU216HW,2013-03-18 19:06:00,
2013-03-18 15:11:00,34.6,30.2,30.07,NE,45,0.4,1.6,84,0.00,,,0.00,WUHU216HW,2013-03-18 19:11:00,
2013-03-18 15:16:00,34.4,30.2,30.07,NE,45,0.4,1.8,85,0.00,,,0.00,WUHU216HW,2013-03-18 19:16:00,
2013-03-18 15:21:00,34.4,30.2,30.07,NE,45,1.3,1.8,85,0.00,,,0.00,WUHU216HW,2013-03-18 19:21:00,
2013-03-18 15:26:00,34.2,29.8,30.07,NE,45,1.3,1.3,84,0.00,,,0.00,WUHU216HW,2013-03-18 19:26:00,
2013-03-18 15:31:00,34.2,30.1,30.07,NE,45,1.1,1.3,85,0.00,,,0.00,WUHU216HW,2013-03-18 19:31:00,
2013-03-18 15:36:00,34.2,30.3,30.06,NE,45,1.1,1.3,86,0.00,,,0.00,WUHU216HW,2013-03-18 19:36:00,
2013-03-18 15:41:00,34.2,30.1,30.06,NE,45,0.4,1.1,85,0.00,,,0.00,WUHU216HW,2013-03-18 19:41:00,
2013-03-18 15:46:00,34.0,29.9,30.07,NE,45,0.4,1.3,85,0.00,,,0.00,WUHU216HW,2013-03-18 19:46:00,
2013-03-18 15:51:00,34.2,30.3,30.05,NE,45,0.0,1.3,86,0.00,,,0.00,WUHU216HW,2013-03-18 19:51:00,
2013-03-18 15:56:00,34.2,30.3,30.05,NE,45,0.0,0.4,86,0.00,,,0.00,WUHU216HW,2013-03-18 19:56:00,
2013-03-18 16:01:00,34.2,30.1,30.05,NE,45,0.4,1.8,85,0.00,,,0.00,WUHU216HW,2013-03-18 20:01:00,
2013-03-18 16:06:00,34.2,30.1,30.05,NE,45,0.2,1.8,85,0.00,,,0.00,WUHU216HW,2013-03-18 20:06:00,
2013-03-18 16:11:00,34.0,29.9,30.05,NE,45,0.0,0.4,85,0.00,,,0.00,WUHU216HW,2013-03-18 20:11:00,
2013-03-18 16:16:00,34.0,30.2,30.05,NE,45,0.4,0.4,86,0.00,,,0.00,WUHU216HW,2013-03-18 20:16:00,
2013-03-18 16:21:00,33.8,30.0,30.06,NE,45,1.1,1.1,86,0.00,,,0.00,WUHU216HW,2013-03-18 20:21:00,
2013-03-18 16:26:00,33.7,29.8,30.05,NE,45,0.4,1.1,86,0.00,,,0.00,WUHU216HW,2013-03-18 20:26:00,
2013-03-18 16:31:00,33.7,29.8,30.05,NE,45,0.4,0.9,86,0.00,,,0.00,WUHU216HW,2013-03-18 20:31:00,
2013-03-18 16:36:00,33.7,29.8,30.05,NE,45,1.1,1.1,86,0.00,,,0.00,WUHU216HW,2013-03-18 20:36:00,
2013-03-18 16:41:00,33.7,29.8,30.05,NE,45,1.1,1.1,86,0.00,,,0.00,WUHU216HW,2013-03-18 20:41:00,
2013-03-18 16:46:00,33.5,29.7,30.06,NE,45,1.6,1.6,86,0.00,,,0.00,WUHU216HW,2013-03-18 20:46:00,
2013-03-18 16:51:00,33.5,30.0,30.05,NE,45,0.9,1.6,87,0.00,,,0.00,WUHU216HW,2013-03-18 20:51:00,
2013-03-18 16:56:00,33.5,30.0,30.05,NE,45,0.4,1.6,87,0.00,,,0.00,WUHU216HW,2013-03-18 20:56:00,
2013-03-18 17:02:00,33.5,30.0,30.05,NE,45,0.4,1.6,87,0.01,,,0.01,WUHU216HW,2013-03-18 21:02:00,
2013-03-18 17:07:00,33.3,30.1,30.05,NE,45,0.7,0.7,88,0.02,,,0.02,WUHU216HW,2013-03-18 21:07:00,
2013-03-18 17:12:00,33.3,30.1,30.04,NE,45,0.2,0.7,88,0.04,,,0.04,WUHU216HW,2013-03-18 21:12:00,
2013-03-18 17:17:00,33.5,30.5,30.04,NE,45,0.2,0.7,89,0.06,,,0.05,WUHU216HW,2013-03-18 21:17:00,
2013-03-18 17:22:00,33.5,30.5,30.03,NE,45,0.0,0.2,89,0.07,,,0.07,WUHU216HW,2013-03-18 21:22:00,
2013-03-18 17:27:00,33.7,30.7,30.03,NE,45,0.0,0.0,89,0.08,,,0.08,WUHU216HW,2013-03-18 21:27:00,
2013-03-18 17:32:00,33.7,30.7,30.03,NE,45,0.2,0.4,89,0.09,,,0.09,WUHU216HW,2013-03-18 21:32:00,
2013-03-18 17:37:00,33.8,30.9,30.02,NE,45,0.4,0.9,89,0.10,,,0.10,WUHU216HW,2013-03-18 21:37:00,
2013-03-18 17:42:00,34.2,31.2,30.01,NE,45,0.4,1.1,89,0.11,,,0.11,WUHU216HW,2013-03-18 21:42:00,
2013-03-18 17:47:00,34.0,31.1,30.01,NE,45,0.9,1.8,89,0.12,,,0.12,WUHU216HW,2013-03-18 21:47:00,
2013-03-18 17:52:00,34.0,31.1,30.01,NE,45,0.4,1.8,89,0.12,,,0.12,WUHU216HW,2013-03-18 21:52:00,
2013-03-18 17:57:00,34.0,31.1,30.01,NE,45,0.9,1.6,89,0.12,,,0.13,WUHU216HW,2013-03-18 21:57:00,
2013-03-18 18:02:00,34.0,31.1,29.99,NE,45,0.7,2.0,89,0.12,,,0.14,WUHU216HW,2013-03-18 22:02:00,
2013-03-18 18:07:00,34.0,30.8,30.00,NE,45,0.4,2.0,88,0.11,,,0.14,WUHU216HW,2013-03-18 22:07:00,
2013-03-18 18:12:00,33.7,30.2,30.00,NE,45,0.9,0.9,87,0.09,,,0.14,WUHU216HW,2013-03-18 22:12:00,
2013-03-18 18:17:00,33.5,30.0,29.99,NE,45,0.4,1.1,87,0.08,,,0.15,WUHU216HW,2013-03-18 22:17:00,
2013-03-18 18:22:00,33.5,30.0,29.99,NE,45,0.9,1.1,87,0.07,,,0.15,WUHU216HW,2013-03-18 22:22:00,
2013-03-18 18:27:00,33.3,30.1,29.99,NE,45,0.2,1.1,88,0.07,,,0.15,WUHU216HW,2013-03-18 22:27:00,
2013-03-18 18:32:00,33.3,30.1,29.99,NE,45,0.7,1.1,88,0.06,,,0.16,WUHU216HW,2013-03-18 22:32:00,
2013-03-18 18:37:00,33.3,30.1,29.99,NE,45,0.4,1.1,88,0.05,,,0.16,WUHU216HW,2013-03-18 22:37:00,
2013-03-18 18:42:00,33.3,30.1,29.99,NE,45,0.0,1.1,88,0.04,,,0.16,WUHU216HW,2013-03-18 22:42:00,
2013-03-18 18:47:00,33.3,30.1,29.98,NE,45,1.6,1.6,88,0.05,,,0.17,WUHU216HW,2013-03-18 22:47:00,
2013-03-18 18:52:00,33.1,29.9,29.98,NE,45,0.0,1.6,88,0.04,,,0.17,WUHU216HW,2013-03-18 22:52:00,
2013-03-18 18:57:00,33.1,29.9,29.97,NE,45,0.9,1.8,88,0.04,,,0.17,WUHU216HW,2013-03-18 22:57:00,
2013-03-18 19:02:00,33.1,30.3,29.97,NE,45,0.0,1.8,89,0.03,,,0.17,WUHU216HW,2013-03-18 23:02:00,
2013-03-18 19:07:00,33.3,30.3,29.97,NE,45,0.0,0.0,89,0.04,,,0.18,WUHU216HW,2013-03-18 23:07:00,
2013-03-18 19:12:00,33.3,30.7,29.97,NE,45,0.0,0.0,90,0.03,,,0.18,WUHU216HW,2013-03-18 23:12:00,
2013-03-18 19:17:00,33.5,30.8,29.97,NE,45,0.0,0.0,90,0.03,,,0.18,WUHU216HW,2013-03-18 23:17:00,
2013-03-18 19:22:00,33.5,30.8,29.97,NE,45,0.0,0.0,90,0.03,,,0.18,WUHU216HW,2013-03-18 23:22:00,
2013-03-18 19:27:00,33.3,30.7,29.97,NE,45,0.0,0.0,90,0.02,,,0.18,WUHU216HW,2013-03-18 23:27:00,
2013-03-18 19:32:00,33.3,30.3,29.96,NE,45,0.0,0.0,89,0.02,,,0.18,WUHU216HW,2013-03-18 23:32:00,
2013-03-18 19:37:00,33.1,30.3,29.96,NE,45,0.0,0.0,89,0.02,,,0.18,WUHU216HW,2013-03-18 23:37:00,
2013-03-18 19:42:00,33.1,30.3,29.95,NE,45,0.0,0.0,89,0.03,,,0.19,WUHU216HW,2013-03-18 23:42:00,
2013-03-18 19:47:00,33.1,30.3,29.95,NE,45,0.0,0.0,89,0.02,,,0.19,WUHU216HW,2013-03-18 23:47:00,
2013-03-18 19:52:00,33.1,30.3,29.95,NE,45,0.0,0.0,89,0.02,,,0.19,WUHU216HW,2013-03-18 23:52:00,
2013-03-18 19:57:00,33.1,30.3,29.95,NE,45,0.0,0.0,89,0.02,,,0.19,WUHU216HW,2013-03-18 23:57:00,
2013-03-18 20:02:00,33.1,30.3,29.94,NE,45,0.0,0.0,89,0.02,,,0.20,WUHU216HW,2013-03-19 00:02:00,
2013-03-18 20:07:00,33.1,30.3,29.95,NE,45,0.0,0.0,89,0.02,,,0.20,WUHU216HW,2013-03-19 00:07:00,
2013-03-18 20:12:00,33.1,29.9,29.95,NE,45,0.0,0.0,88,0.02,,,0.20,WUHU216HW,2013-03-19 00:12:00,
2013-03-18 20:17:00,33.1,29.9,29.95,NE,45,0.0,0.0,88,0.02,,,0.20,WUHU216HW,2013-03-19 00:17:00,
2013-03-18 20:22:00,33.1,29.9,29.95,NE,45,0.0,0.0,88,0.02,,,0.20,WUHU216HW,2013-03-19 00:22:00,
2013-03-18 20:27:00,33.1,29.9,29.95,NE,45,0.0,0.0,88,0.02,,,0.20,WUHU216HW,2013-03-19 00:27:00,
2013-03-18 20:32:00,32.9,29.8,29.95,NE,45,0.0,0.0,88,0.02,,,0.20,WUHU216HW,2013-03-19 00:32:00,
2013-03-18 20:37:00,32.9,29.8,29.95,NE,45,0.0,0.0,88,0.02,,,0.21,WUHU216HW,2013-03-19 00:37:00,
2013-03-18 20:43:00,32.9,30.1,29.94,NE,45,0.0,0.0,89,0.02,,,0.21,WUHU216HW,2013-03-19 00:43:00,
2013-03-18 20:48:00,32.9,30.1,29.94,NE,45,0.0,0.0,89,0.02,,,0.21,WUHU216HW,2013-03-19 00:48:00,
2013-03-18 20:53:00,32.9,30.1,29.94,NE,45,0.0,0.0,89,0.02,,,0.21,WUHU216HW,2013-03-19 00:53:00,
2013-03-18 20:58:00,32.9,30.1,29.94,NE,45,0.0,0.0,89,0.02,,,0.21,WUHU216HW,2013-03-19 00:58:00,
2013-03-18 21:03:00,32.9,30.1,29.94,NE,45,0.0,0.0,89,0.01,,,0.21,WUHU216HW,2013-03-19 01:03:00,
2013-03-18 21:08:00,32.9,30.3,29.94,NE,45,0.0,0.0,90,0.01,,,0.21,WUHU216HW,2013-03-19 01:08:00,
2013-03-18 21:13:00,33.1,30.3,29.93,NE,45,0.0,0.0,89,0.01,,,0.21,WUHU216HW,2013-03-19 01:13:00,
2013-03-18 21:18:00,33.1,30.8,29.92,NE,45,0.0,0.0,91,0.01,,,0.21,WUHU216HW,2013-03-19 01:18:00,
2013-03-18 21:23:00,33.1,30.8,29.91,NE,45,0.0,0.0,91,0.01,,,0.21,WUHU216HW,2013-03-19 01:23:00,
2013-03-18 21:28:00,33.1,30.8,29.91,NE,45,0.0,0.0,91,0.01,,,0.21,WUHU216HW,2013-03-19 01:28:00,
2013-03-18 21:33:00,33.1,31.1,29.91,NE,45,0.0,0.0,92,0.00,,,0.21,WUHU216HW,2013-03-19 01:33:00,
2013-03-18 21:38:00,33.1,30.8,29.91,NE,45,0.0,0.0,91,0.00,,,0.21,WUHU216HW,2013-03-19 01:38:00,
2013-03-18 21:43:00,33.1,30.8,29.90,NE,45,0.0,0.0,91,0.00,,,0.21,WUHU216HW,2013-03-19 01:43:00,
2013-03-18 21:48:00,33.1,30.5,29.90,NE,45,0.0,0.0,90,0.00,,,0.21,WUHU216HW,2013-03-19 01:48:00,
2013-03-18 21:53:00,33.1,30.3,29.91,NE,45,0.0,0.0,89,0.01,,,0.22,WUHU216HW,2013-03-19 01:53:00,
2013-03-18 21:58:00,33.1,30.3,29.90,NE,45,0.0,0.0,89,0.01,,,0.22,WUHU216HW,2013-03-19 01:58:00,
2013-03-18 22:03:00,32.9,30.1,29.90,NE,45,0.0,0.0,89,0.01,,,0.22,WUHU216HW,2013-03-19 02:03:00,
2013-03-18 22:08:00,33.1,30.5,29.89,NE,45,0.0,0.0,90,0.01,,,0.22,WUHU216HW,2013-03-19 02:08:00,
2013-03-18 22:13:00,33.1,30.3,29.90,NE,45,0.0,0.0,89,0.01,,,0.22,WUHU216HW,2013-03-19 02:13:00,
2013-03-18 22:18:00,33.1,30.3,29.90,NE,45,0.0,0.0,89,0.01,,,0.22,WUHU216HW,2013-03-19 02:18:00,
2013-03-18 22:23:00,33.1,30.3,29.90,NE,45,0.0,0.0,89,0.01,,,0.22,WUHU216HW,2013-03-19 02:23:00,
2013-03-18 22:28:00,33.1,30.3,29.90,NE,45,0.0,0.0,89,0.01,,,0.22,WUHU216HW,2013-03-19 02:28:00,
2013-03-18 22:33:00,33.1,30.3,29.89,NE,45,0.0,0.0,89,0.01,,,0.22,WUHU216HW,2013-03-19 02:33:00,
2013-03-18 22:38:00,33.3,30.7,29.90,NE,45,0.0,0.0,90,0.01,,,0.22,WUHU216HW,2013-03-19 02:38:00,
2013-03-18 22:43:00,33.3,31.0,29.90,NE,45,0.0,0.0,91,0.01,,,0.22,WUHU216HW,2013-03-19 02:43:00,
2013-03-18 22:48:00,33.5,31.1,29.89,NE,45,0.0,0.0,91,0.00,,,0.22,WUHU216HW,2013-03-19 02:48:00,
2013-03-18 22:53:00,33.5,30.5,29.90,NE,45,0.0,0.0,89,0.00,,,0.22,WUHU216HW,2013-03-19 02:53:00,
2013-03-18 22:58:00,33.5,31.1,29.90,NE,45,0.0,0.0,91,0.00,,,0.22,WUHU216HW,2013-03-19 02:58:00,
2013-03-18 23:03:00,33.5,30.5,29.91,NE,45,0.0,0.0,89,0.00,,,0.22,WUHU216HW,2013-03-19 03:03:00,
2013-03-18 23:08:00,33.3,30.7,29.91,NE,45,0.0,0.0,90,0.00,,,0.22,WUHU216HW,2013-03-19 03:08:00,
2013-03-18 23:13:00,33.3,30.7,29.90,NE,45,0.0,0.0,90,0.00,,,0.22,WUHU216HW,2013-03-19 03:13:00,
2013-03-18 23:18:00,33.5,30.8,29.91,NE,45,0.0,0.0,90,0.00,,,0.22,WUHU216HW,2013-03-19 03:18:00,
2013-03-18 23:23:00,33.5,30.8,29.91,NE,45,0.0,0.0,90,0.00,,,0.22,WUHU216HW,2013-03-19 03:23:00,
2013-03-18 23:28:00,33.5,31.1,29.90,NE,45,0.0,0.0,91,0.00,,,0.22,WUHU216HW,2013-03-19 03:28:00,
2013-03-18 23:33:00,33.5,30.8,29.90,NE,45,0.0,0.0,90,0.00,,,0.22,WUHU216HW,2013-03-19 03:33:00,
2013-03-18 23:38:00,33.5,31.1,29.90,NE,45,0.0,0.0,91,0.00,,,0.22,WUHU216HW,2013-03-19 03:38:00,
2013-03-18 23:43:00,33.5,31.1,29.89,NE,45,0.0,0.0,91,0.00,,,0.22,WUHU216HW,2013-03-19 03:43:00,
2013-03-18 23:48:00,33.5,30.8,29.89,NE,45,0.0,0.0,90,0.00,,,0.22,WUHU216HW,2013-03-19 03:48:00,
2013-03-18 23:53:00,33.3,30.7,29.89,NE,45,0.0,0.0,90,0.00,,,0.22,WUHU216HW,2013-03-19 03:53:00,
2013-03-18 23:58:00,33.3,30.3,29.89,NE,45,0.0,0.0,89,0.00,,,0.22,WUHU216HW,2013-03-19 03:58:00,